Weather Service Report


866 
ASUS45 KBOI 282210
RWRID 

IDAHO REGIONAL WEATHER ROUNDUP
NATIONAL WEATHER SERVICE BOISE ID
400 PM MDT TUE JUN 28 2016

NOTE: "FAIR" INDICATES FEW OR NO CLOUDS BELOW 12000 FEET
WITH NO SIGNIFICANT WEATHER AND/OR OBSTRUCTIONS TO VISIBILITY

IDZ012-014-282300-
SOUTHWEST IDAHO

  
CITY           SKY/WX    TMP DP  RH WIND       PRES   REMARKS
BOISE          SUNNY     98  44  15 NW10      29.99F HX  94           
CALDWELL       SUNNY     97  50  20 W8        29.98F HX  94           
MOUNTAIN HOME  SUNNY    100  39  12 VRB5G17   29.99F HX  95           
$$

IDZ016-017-282300-
SOUTHCENTRAL IDAHO

  
CITY           SKY/WX    TMP DP  RH WIND       PRES   REMARKS
BURLEY         SUNNY     89  49  25 W9        30.08F                  
JEROME         SUNNY     92  43  18 SW8       30.09F                  
TWIN FALLS     SUNNY     94  42  16 NW8       30.10F HX  90           
$$

IDZ019>023-282300-
SOUTHEAST IDAHO

  
CITY           SKY/WX    TMP DP  RH WIND       PRES   REMARKS
IDAHO FALLS    SUNNY     87  46  24 S10       30.13F                  
POCATELLO      SUNNY     95  42  16 SW8       30.12F HX  91           
REXBURG        SUNNY     87  47  24 S13G22    30.13F                  
$$

IDZ006-010-011-018-031-032-282300-
CENTRAL IDAHO MOUNTAINS

  
CITY           SKY/WX    TMP DP  RH WIND       PRES   REMARKS
MCCALL         SUNNY     88  39  17 W10       30.18F                  
HAILEY         MOSUNNY   91  37  15 W9G20     30.16F                  
STANLEY          N/A     88  24  10 N10       30.26F                  
SALMON         NOT AVBL                                               
CHALLIS        SUNNY     94  27   9 VRB3      30.10F                  
$$

IDZ002-004-006-007-026-282300-
NORTHERN IDAHO

  
CITY           SKY/WX    TMP DP  RH WIND       PRES   REMARKS
LEWISTON       SUNNY     96  46  18 NE9       30.00F HX  92           
LOWELL           N/A     97  52  21 VRB3      29.96F HX  94           
COEUR D'ALENE  SUNNY     91  45  19 W10       30.04F                  
MULLAN PASS    MOSUNNY   76  43  30 VRB5      30.30F                  
$$
  

Return to Home page


Western Regional Climate Center, wrcc@dri.edu